Location: Br�znic
(45.9167°N, 22.6500°E)
Time: 20:28:59
(UTC+00:00)

Okean 3 - Pass Details

Date: 03 March 2021
Orbit: 577 x 600 km, 82.5° (Epoch: 13 April)

Event Time Altitude Azimuth Distance (km) Brightness Sun altitude
Rises 18:36:43 0° 348° (NNW) 2,832 7.3 -24.5°
Reaches altitude 10° 18:38:56 10° 346° (NNW) 1,930 6.4 -24.9°
Enters shadow 18:43:03 68° 275° (W) 642 3.7 -25.6°
